This is the latest recevied weather packets stored in our database for station/object K7CTM. If no packets are shown the sender has not sent any weather packets the latest 10 day(s).
| Time | Temp. | Humidity | Pressure | Rain* | Wind** | Luminosity | Snow |
|---|---|---|---|---|---|---|---|
| 1778072685 | -2.78° C | 84% | 1028.8 hPa | 0 mm | - | 70 W/m² | - |
| 1778072383 | -3.33° C | 84% | 1028.8 hPa | 0 mm | - | 60 W/m² | - |
| 1778072081 | -3.33° C | 85% | 1028.8 hPa | 0 mm | - | 52 W/m² | - |
| 1778071779 | -3.33° C | 86% | 1028.8 hPa | 0 mm | - | 44 W/m² | - |
| 1778071476 | -3.89° C | 86% | 1028.9 hPa | 0 mm | - | 35 W/m² | - |
| 1778071174 | -3.89° C | 86% | 1028.7 hPa | 0 mm | - | 30 W/m² | - |
| 1778070872 | -3.89° C | 87% | 1028.8 hPa | 0 mm | - | 26 W/m² | - |
| 1778070569 | -3.89° C | 87% | 1028.6 hPa | 0 mm | - | 22 W/m² | - |
| 1778070266 | -3.89° C | 87% | 1028.5 hPa | 0 mm | - | 19 W/m² | - |
| 1778069964 | -3.89° C | 88% | 1028.6 hPa | 0 mm | - | 15 W/m² | - |
| 1778069661 | -3.89° C | 88% | 1028.7 hPa | 0 mm | - | 12 W/m² | - |
| 1778069358 | -3.89° C | 87% | 1028.6 hPa | 0 mm | - | 9 W/m² | - |
| 1778069055 | -3.89° C | 87% | 1028.6 hPa | 0 mm | - | 6 W/m² | - |
| 1778068752 | -3.89° C | 87% | 1028.6 hPa | 0 mm | - | 4 W/m² | - |
| 1778068450 | -3.89° C | 86% | 1028.7 hPa | 0 mm | - | 2 W/m² | - |
| 1778068149 | -3.33° C | 86% | 1028.5 hPa | 0 mm | - | 1 W/m² | - |
| 1778067846 | -3.89° C | 86% | 1028.6 hPa | 0 mm | - | 1 W/m² | - |
| 1778067545 | -3.33° C | 85% | 1028.6 hPa | 0 mm | - | 0 W/m² | - |
| 1778067241 | -3.33° C | 85% | 1028.5 hPa | 0 mm | - | 0 W/m² | - |
| 1778066938 | -3.33° C | 86% | 1028.6 hPa | 0 mm | - | 0 W/m² | - |
| 1778066635 | -3.89° C | 86% | 1028.5 hPa | 0 mm | - | 0 W/m² | - |
| 1778066332 | -3.89° C | 87% | 1028.5 hPa | 0 mm | - | 0 W/m² | - |
| 1778066031 | -3.89° C | 86% | 1028.5 hPa | 0 mm | - | 0 W/m² | - |
| 1778065728 | -3.33° C | 86% | 1028.6 hPa | 0 mm | - | 0 W/m² | - |
| 1778065425 | -3.33° C | 85% | 1028.3 hPa | 0 mm | - | 0 W/m² | - |
* Rain latest hour (hover to see other rain measurements)
** Current wind speed in m/s (hover to see current wind gust speed)